Simultaneous Nadir Overpasses (SNOs) Predictions

Prediction of SNOs between LANDSAT-8 and NOAA-19 Satellite Orbit:

Table of predicted SNOs for the next 14.0 days since TLE Epoch: 5/25/2018
Index Date (LANDSAT-8) Time (LANDSAT-8) Lat,Lon (LANDSAT-8) SZA (LANDSAT-8 ) Date (NOAA-19) Time (NOAA-19) Lat,Lon (NOAA-19) SZA (NOAA-19 ) Distance(km) Time Diff (sec)
1 05/25/2018 18:27:01 77.62, -83.32 56.93 05/25/2018 18:26:56 77.58, -83.30 56.90 3.74 5
2 05/28/2018 00:00:44 -77.61, 13.23 123.46 05/28/2018 00:00:37 -77.63, 13.13 123.45 2.82 7
3 05/28/2018 00:50:18 77.23, 179.35 56.09 05/28/2018 00:51:23 77.20,-177.50 56.27 77.65 65
4 05/30/2018 05:34:25 77.63, 109.88 56.21 05/30/2018 05:34:09 77.63, 109.78 56.21 2.22 16
5 05/30/2018 06:23:58 -77.37, -83.55 124.11 05/30/2018 06:25:07 -77.36, -81.59 123.98 47.66 69
6 06/01/2018 11:08:08 -77.63,-153.57 124.11 06/01/2018 11:07:49 -77.62,-153.47 124.12 2.71 19
7 06/01/2018 11:57:34 77.61, 14.01 55.87 06/01/2018 11:58:44 77.58, 13.99 55.85 3.63 70
8 06/03/2018 16:41:49 77.64, -56.96 55.61 06/03/2018 16:41:21 77.65, -56.95 55.62 1.65 28
9 06/03/2018 17:31:17 -77.61, 110.57 124.43 06/03/2018 17:32:25 -77.59, 110.57 124.43 1.84 68
10 06/05/2018 22:15:32 -77.64, 39.60 124.65 06/05/2018 22:15:02 -77.66, 39.65 124.63 3.02 30
11 06/05/2018 23:04:58 77.62,-152.84 55.33 06/05/2018 23:05:56 77.60,-152.76 55.33 2.72 58
12 06/08/2018 03:49:12 77.68, 136.37 55.19 06/08/2018 03:48:33 77.67, 136.28 55.16 2.17 39




NCC Satellite Simultaneous Nadir Overpasses (SNOs) Prediction Service
